Regional Weather Roundup
Issued by NWS

Home | Current Version | Previous Version | Graphics & Text | Print | Product List | Glossary On
Versions: 1 2 3 4 5 6 7 8 9 10 11 12 13 14 15 16 17 18 19 20 21 22 23 24 25 26 27 28 29 30 31 32 33 34 35 36 37 38 39 40 41 42 43 44 45 46 47 48 49 50
000
ASUS43 KMKX 200411
RWRWI

WISCONSIN REGIONAL WEATHER ROUNDUP
NATIONAL WEATHER SERVICE MILWAUKEE/SULLIVAN WI
1100 PM CDT SAT APR 19 2014

NOTE: "FAIR" INDICATES FEW OR NO CLOUDS BELOW 12,000 FEET WITH NO
SIGNIFICANT WEATHER AND/OR OBSTRUCTIONS TO VISIBILITY.

WIZ001-002-006>008-014>016-023>028-200500-
NORTHWEST WISCONSIN

CITY           SKY/WX    TMP DP  RH WIND       PRES   REMARKS
SUPERIOR ARPT  CLEAR     31  30  96 CALM      30.04S
ASHLAND        CLOUDY    39  38  96 SW5       30.03F
HAYWARD        CLOUDY    45  41  86 CALM      30.03S
SIREN          PTCLDY    45  39  81 CALM      30.01F
RICE LAKE      CLOUDY    51  45  79 SE8       30.03S
LADYSMITH      CLOUDY    52  46  81 SE5       30.07S
EAU CLAIRE     CLOUDY    59  42  53 SE3       30.02F
MENOMONIE      CLOUDY    55  44  64 E5        30.02F
NEW RICHMOND   HVY RAIN  51  51  97 CALM      30.03R
OSCEOLA        LGT RAIN  51  48  92 SE7       30.04S
$$

WIZ003>005-009-010-017-018-200500-
NORTH CENTRAL WISCONSIN

CITY           SKY/WX    TMP DP  RH WIND       PRES   REMARKS
WOODRUFF       CLOUDY    45  41  85 S7        30.07F
RHINELANDER    CLOUDY    46  37  71 S7        30.10F
EAGLE RIVER    CLOUDY    45  35  70 S8        30.09F
LAND O LAKES   MOCLDY    46  36  66 S7        30.09F
PHILLIPS       RAIN      50  42  74 S8        30.05F
TOMAHAWK       CLOUDY    46  39  78 CALM      30.09F
MEDFORD        CLOUDY    53  40  62 SE10      30.07F
MERRILL        LGT RAIN  50  40  67 CALM      30.11F
$$

WIZ029-030-035-036-043>047-200500-
CENTRAL WISCONSIN

CITY           SKY/WX    TMP DP  RH WIND       PRES   REMARKS
WAUSAU         CLOUDY    55  37  50 SE8       30.10F
MOSINEE        CLOUDY    54  37  54 SE9       30.12F
MARSHFIELD     CLOUDY    58  39  49 S12       30.08F
STEVENS POINT  CLOUDY    53  36  51 SE8       30.13S
WAUPACA        CLOUDY    54  36  50 S8        30.16S
WAUTOMA        CLOUDY    54  38  54 SE9       30.16S
WISC RAPIDS    CLOUDY    60  35  39 S8        30.12F
CAMP DOUGLAS   CLOUDY    60  36  40 SE10      30.10F
$$

WIZ011>013-019>022-031-037>040-048>050-200500-
NORTHEAST WISCONSIN

CITY           SKY/WX    TMP DP  RH WIND       PRES   REMARKS
ANTIGO         CLOUDY    46  36  68 SE8       30.14F
STURGEON BAY   CLOUDY    43  30  61 S14       30.19F
GREEN BAY      CLOUDY    50  38  63 S12       30.18F
MANITOWOC      MOCLDY    42  34  73 S10       30.22F
APPLETON       MOCLDY    48  36  61 S14       30.18F
CLINTONVILLE   CLOUDY    50  36  57 S6        30.16S
OSHKOSH        CLOUDY    49  37  63 S8        30.18S
$$

WIZ032>034-041-042-053>061-200500-
SOUTHWEST WISCONSIN

CITY           SKY/WX    TMP DP  RH WIND       PRES   REMARKS
LA CROSSE      CLOUDY    64  39  39 S12       30.06S
SPARTA         CLOUDY    64  33  31 S13G18    30.09S
VIROQUA        CLOUDY    59  37  42 S14       30.11S
BOSCOBEL       MOCLDY    64  34  32 VRB6      30.13R
PRAIRIE DU CHI MOCLDY    62  36  37 SE5       30.11S
PLATTEVILLE    CLOUDY    57  36  44 SE12      30.16S
$$

WIZ056-057-062-063-064-067-068-200500-
SOUTH CENTRAL WISCONSIN

CITY           SKY/WX    TMP DP  RH WIND       PRES   REMARKS
BARABOO/DELLS  PTCLDY    56  34  42 S8        30.15R
LONE ROCK      MOCLDY    58  37  45 VRB3      30.14S
WATERTOWN      CLOUDY    50  37  62 SE7       30.20S
MADISON        CLOUDY    55  39  54 S12       30.18S
MIDDLETON      FAIR      57  33  39 SE7       30.17S
MONROE         CLOUDY    54  35  49 SE12      30.18F
JANESVILLE     MOCLDY    50  37  62 SE7       30.20S
$$

WIZ051-052-058>065-066-070>072-200500-
SOUTHEAST WISCONSIN

CITY           SKY/WX    TMP DP  RH WIND       PRES   REMARKS
MILWAUKEE      MOCLDY    44  34  67 S3        30.25S
WAUKESHA       MOCLDY    45  34  65 SE9       30.24S
MILWAUKEE/TIMM MOCLDY    43  32  65 CALM      30.24S
RACINE         MOCLDY    46  34  62 S12       30.25S
BURLINGTON     MOCLDY    44  35  69 CALM      30.23R
KENOSHA        PTCLDY    47  35  63 SE10      30.23F
FOND DU LAC    CLOUDY    51  36  56 S14       30.19S
SHEBOYGAN      MOCLDY    40  33  76 S6        30.22F
WEST BEND      CLOUDY    45  32  61 S5        30.23R
JUNEAU         CLOUDY    50  33  50 SE12      30.21R
$$

LSZ147-162-200500-
LAKE SUPERIOR

STATION/POSITION TIME  TEMP    WIND        PRES    WAVE
                       AIR SEA DIR/SP/G            HT/PER
                 (UTC) (F)     (DEG/KT/KT) (MB)    (FT/S)
DEVILS ISLAND    0400   35      CALM  / 39 1017.5F
PORT WING        0300   33     340/  3/  4 1016.9
SAXON HARBOR     0300             CALM     1016.6F
$$

LMZ867-665-643>646-200500-
LAKE MICHIGAN

STATION/POSITION TIME  TEMP    WIND        PRES    WAVE
                       AIR SEA DIR/SP/G            HT/PER
                 (UTC) (F)     (DEG/KT/KT) (MB)    (FT/S)
NORTHPORT PIER   0300   37     150/  9/ 12 1023.0F
SISTER BAY       0309   40     160/ 12/ 16   N/A
KEWAUNEE LAKESHO 0300   38     170/  7/ 10 1024.0F
SHEBOYGAN LAKESH 0400   45     180/ 10/ 11 1024.1F
PORT WASHINGTON  0300   43      CALM  /  2 1024.4F
MILWAUKEE LAKESH 0300   43     120/  5/  6   N/A
KENOSHA   LAKESH 0400   44     170/ 13/ 16   N/A
$$

TC  - TEMPERATURE IN CELSIUS
VSB - VISIBILITY IN STATUTE MILES
WCI - WIND CHILL INDEX
HX  - HEAT INDEX




USA.gov is the U.S. government's official web portal to all federal, state and local government web resources and services.